Location: Unnamed
(48.6007°N, 2.4808°E)
Time: 09:50:39
(UTC+01:00)

FENGYUN 1C DEB - Pass Details

Date: 04 December 2023
Orbit: 508 x 828 km, 98.6° (Epoch: 23 February)

Event Time Altitude Azimuth Distance (km) Brightness Sun altitude
Rises 04:58:58 0° 13° (NNE) 3,305 ? -33.0°
Reaches altitude 10° 05:01:16 10° 12° (NNE) 2,406 ? -32.6°
Enters shadow 05:02:04 15° 11° (N) 2,100 ? -32.5°
